Theta_e
345 347 349 345 344 348 350 346 347 348 346 348 346 345 344 344 344 347 344 336 337 343 342 340 343 341 341 341 342 342 343 343 344 344 338 339 341 341 341 338 336 334 336
346 350 342 340 344 351 350 350 347 349 347 348 347 344 344 344 345 346 349 348 345 346 340 342 341 340 342 341 342 342 343 344 345 344 339 341 341 340 338 335 336 336 339
343 337 337 350 348 345 342 346 346 347 346 347 344 344 343 344 347 350 352 349 348 344 343 339 345 339 342 342 342 343 344 344 345 344 341 342 341 340 339 339 337 333 333
342 348 349 351 344 351 349 350 346 345 349 346 345 344 346 346 351 341 350 346 350 350 344 339 345 342 341 343 343 345 345 345 345 344 342 342 343 341 339 339 340 342 339
349 352 352 349 346 349 348 348 350 350 349 348 341 343 346 347 349 348 348 347 347 352 350 344 344 346 343 344 343 345 345 344 344 345 343 341 343 341 338 336 335 333 332
346 348 352 348 344 347 355 351 351 347 348 351 346 348 347 346 346 347 347 347 346 350 352 348 336 343 345 348 344 344 344 344 344 346 344 340 341 341 339 334 331 333 332
349 345 352 348 346 344 350 353 353 354 352 348 348 347 344 341 345 346 347 347 349 349 352 352 347 347 347 348 344 343 344 344 345 347 345 343 341 342 340 338 333 326 323
352 352 352 351 350 349 349 350 355 354 352 350 347 350 344 341 343 347 348 348 350 349 351 354 352 354 351 352 345 345 343 343 344 345 346 346 344 342 342 340 338 332 322
352 352 354 354 353 346 354 353 355 355 352 353 350 351 354 356 350 345 346 345 346 346 351 350 351 354 353 353 350 346 343 343 343 343 342 344 345 345 343 342 340 338 330
350 352 354 350 350 351 351 351 352 354 354 354 350 351 348 350 355 354 344 346 344 347 348 338 341 352 354 354 347 342 343 344 344 343 342 341 344 347 346 344 342 341 338
351 352 353 351 351 350 353 355 357 357 356 355 351 348 346 348 353 355 353 351 346 343 350 349 350 352 355 352 349 343 343 345 342 341 341 342 342 343 347 349 346 342 341
351 351 353 350 352 354 354 356 356 357 356 352 349 352 352 352 351 353 354 352 349 345 351 349 352 354 353 352 347 345 345 345 342 341 340 342 343 343 342 344 349 348 342
352 350 353 353 354 352 354 355 355 355 355 354 355 353 355 352 349 349 351 354 353 348 350 347 345 354 352 352 349 346 346 345 342 340 338 339 340 342 343 343 344 349 348
349 352 349 354 354 353 355 354 355 355 354 356 355 355 354 353 350 348 348 354 355 351 350 348 350 351 349 351 348 350 349 345 343 340 337 338 339 340 343 343 342 348 349
351 353 351 354 353 354 353 356 352 355 355 355 354 354 354 353 351 352 350 352 354 358 355 350 351 353 354 352 340 351 352 348 344 341 338 337 339 340 342 344 343 346 349
351 349 347 352 349 352 353 354 355 354 353 354 354 355 355 354 353 350 351 350 352 352 355 351 351 347 354 353 351 354 353 349 346 342 338 337 337 338 340 343 345 346 346
352 343 334 350 352 351 352 354 351 353 354 355 354 355 354 352 351 353 351 354 351 353 355 352 354 354 353 354 353 355 350 349 346 342 340 337 335 335 337 339 340 341 342
350 350 351 352 353 352 351 353 353 354 353 353 355 354 353 354 353 353 354 351 351 352 353 351 352 352 353 352 350 349 352 352 347 342 340 337 334 332 331 331 331 331 332
352 354 353 353 351 354 353 353 354 355 354 354 354 354 351 353 351 353 354 352 353 353 352 352 351 352 351 352 352 351 351 345 344 339 337 333 333 331 329 327 327 326 327
354 353 354 354 353 354 354 354 354 353 355 355 354 355 354 353 351 352 354 350 351 352 351 348 348 348 350 350 349 350 350 347 340 331 332 331 330 328 325 323 324 324 324
356 354 354 354 353 355 354 355 354 354 355 355 355 353 354 355 353 353 350 351 351 351 354 352 353 351 351 351 349 349 349 348 338 334 331 329 329 326 323 323 319 318 316
355 356 356 356 355 355 354 352 353 354 354 355 355 356 355 353 352 351 349 347 347 347 348 350 350 350 349 346 345 346 347 348 342 330 328 327 326 324 325 322 318 315 316
356 356 357 356 357 355 355 352 351 355 352 352 353 354 353 353 354 352 349 347 345 344 342 343 347 343 343 340 341 342 342 338 335 333 333 325 326 327 323 322 321 320 320
357 357 358 358 357 356 357 354 352 349 348 350 351 353 354 354 353 353 349 348 343 341 341 340 340 336 334 334 337 339 337 334 331 331 331 325 323 322 322 323 321 320 318
357 357 358 358 357 357 356 354 351 349 351 351 351 353 354 353 352 350 350 343 340 336 334 334 332 330 326 329 336 339 338 335 332 331 331 328 325 323 322 321 320 319 319
355 356 357 357 357 357 356 354 351 353 351 353 353 352 349 349 348 346 346 341 337 334 331 329 328 327 326 326 327 326 327 336 334 333 330 331 328 327 327 325 322 319 318
Wind_Speed
4 10 5 9 9 13 12 10 7 4 5 8 2 6 8 7 6 8 14 16 11 2 3 5 4 6 5 4 5 4 3 2 1 2 1 2 1 3 3 4 6 6 7
7 4 3 14 8 10 9 7 3 3 9 7 1 3 6 8 6 6 2 9 8 3 5 5 6 7 7 5 4 3 2 2 2 2 2 1 0 1 3 3 3 4 4
9 8 15 5 7 2 6 4 1 5 7 10 7 5 4 2 3 5 2 5 10 7 7 5 6 6 5 4 2 2 1 2 2 2 1 1 1 2 2 2 3 4 3
8 9 9 7 1 7 8 5 7 7 14 11 10 6 13 6 8 20 5 6 6 6 8 7 4 4 3 2 2 1 1 1 2 1 1 0 1 3 3 5 4 5 4
2 8 5 7 2 5 7 8 9 10 14 7 9 9 15 4 4 4 8 7 8 7 7 12 4 2 3 3 2 1 2 1 0 1 2 1 2 2 3 4 4 3 2
6 4 4 2 2 7 8 7 9 8 10 13 10 12 13 15 9 6 7 9 8 11 10 9 9 6 6 5 3 1 2 2 1 2 1 1 1 2 2 3 3 3 2
8 8 5 0 2 4 4 6 5 11 12 7 11 16 27 19 15 18 6 12 13 7 11 6 5 11 5 7 4 2 3 4 4 1 1 0 2 1 1 2 3 3 3
5 7 6 2 5 4 3 0 4 8 12 4 5 10 1 4 10 16 12 4 11 11 11 8 8 6 4 9 6 3 3 4 5 3 2 2 1 1 0 1 2 3 3
9 7 3 5 1 3 5 2 4 5 10 7 2 2 1 2 2 4 1 12 10 7 6 6 6 6 11 8 7 5 4 5 5 5 4 2 2 1 1 0 1 2 3
11 8 6 4 6 6 3 3 3 3 7 10 2 1 1 3 1 3 5 7 4 5 16 6 4 2 11 10 5 4 4 5 5 5 4 3 2 1 1 1 0 1 2
11 10 8 4 3 8 6 3 0 3 6 9 12 10 10 9 8 5 2 2 7 7 8 8 13 11 14 7 6 7 4 4 5 5 6 5 3 2 2 3 2 2 1
15 13 10 7 6 5 6 5 2 3 2 5 6 11 16 13 8 6 1 4 10 6 12 9 10 13 9 9 5 6 4 4 4 6 6 5 5 3 3 4 5 4 3
18 17 14 11 8 6 5 4 5 5 5 3 5 10 15 14 13 11 12 5 4 6 5 6 7 12 13 2 3 4 5 4 4 5 6 6 6 6 6 4 8 8 5
10 17 17 13 9 8 5 6 6 4 9 3 3 8 10 12 10 7 6 8 4 6 6 5 10 13 3 10 2 1 5 4 2 4 5 6 7 8 9 7 5 7 6
10 20 15 18 13 11 9 8 7 6 4 5 6 7 8 11 9 5 3 7 5 3 3 10 7 13 13 13 3 6 2 4 2 2 3 5 7 7 8 8 5 5 5
7 5 6 6 9 11 11 10 11 12 8 6 5 2 6 9 11 11 4 3 4 2 3 2 8 5 4 4 7 5 4 2 2 2 3 4 6 7 7 6 5 3 1
13 5 11 3 7 8 11 10 12 9 9 7 8 7 6 5 7 8 6 5 4 6 5 13 10 2 4 4 1 3 3 4 4 3 3 3 5 6 6 6 5 4 2
11 11 13 14 13 13 12 12 12 11 11 10 9 8 8 6 7 9 9 11 12 5 7 9 15 13 4 4 1 5 4 12 7 3 3 3 4 5 5 6 5 5 4
18 18 18 19 17 15 15 14 13 13 12 10 10 8 9 7 7 6 7 8 8 10 11 6 13 12 13 7 4 4 5 13 6 5 4 7 6 4 4 4 4 4 5
23 22 20 21 19 19 18 16 16 16 13 12 9 8 8 8 10 10 6 7 9 10 10 12 11 11 10 8 4 6 4 2 6 9 8 8 9 11 8 7 6 6 8
24 23 23 21 22 22 21 21 18 16 14 14 10 9 9 12 9 8 5 5 7 7 7 9 8 9 10 8 8 7 5 10 13 12 10 9 6 7 7 6 6 6 6
23 24 24 24 23 23 23 23 24 20 17 15 13 11 10 10 8 10 7 6 5 5 4 5 5 5 6 7 9 10 6 2 4 11 9 11 14 5 3 3 3 3 2
24 24 24 25 26 27 26 21 24 21 15 13 13 13 8 9 7 5 4 2 2 0 1 3 4 5 3 4 5 7 6 5 4 5 11 6 5 1 2 3 1 2 2
24 26 26 25 26 26 26 26 21 25 18 16 15 15 11 10 11 10 6 10 6 3 5 4 2 2 2 2 3 4 4 10 8 7 4 4 3 1 1 1 1 2 3
24 25 24 25 26 26 26 27 23 22 20 18 15 14 12 15 14 13 12 14 8 3 4 4 5 8 10 9 8 5 5 7 3 3 4 3 2 1 1 1 1 5 8
21 23 25 27 27 26 27 27 24 21 18 18 18 16 13 14 14 13 16 19 12 9 8 9 9 9 12 14 12 10 11 2 6 6 2 3 6 7 4 4 2 5 4
Wind_Direction
227 175 163 235 206 248 207 201 136 211 214 229 328 337 331 344 12 91 121 344 274 316 53 33 57 102 97 67 68 87 78 62 34 356 331 294 216 219 231 232 242 233 221
189 344 202 212 136 332 82 56 64 306 291 199 109 312 302 11 38 19 62 336 174 144 79 96 102 108 96 81 62 64 67 55 48 21 1 39 315 184 202 191 195 188 174
152 193 152 271 80 87 111 110 265 282 278 266 251 269 232 178 127 360 303 127 149 133 83 113 110 104 98 96 82 80 61 72 62 31 334 109 111 142 145 158 161 156 159
147 244 273 75 2 296 279 270 298 350 341 35 8 317 306 275 133 306 267 104 139 172 102 77 93 120 133 126 108 85 41 83 96 49 279 55 103 128 142 156 158 151 164
263 312 44 65 286 336 311 38 313 19 352 66 97 310 278 339 111 137 158 145 125 104 108 76 60 248 185 193 144 52 352 13 110 198 205 167 161 144 129 136 148 144 129
196 230 291 267 241 298 17 15 16 3 336 322 341 289 21 22 5 237 209 155 115 124 131 123 246 224 211 198 171 75 30 48 99 196 195 146 170 157 116 115 122 102 95
192 237 303 222 295 303 338 9 348 314 292 11 334 43 20 320 317 275 84 160 134 156 152 142 174 175 168 198 168 112 71 69 82 81 63 122 205 189 124 88 87 90 85
185 212 256 286 291 348 294 287 304 307 320 40 340 325 287 273 325 336 32 166 94 352 166 152 120 163 171 166 126 108 90 69 61 49 12 335 295 232 170 62 57 64 75
197 212 220 257 243 251 223 194 256 300 319 358 37 11 121 296 5 297 253 340 115 152 91 114 349 205 153 187 111 84 86 62 41 24 17 1 316 313 311 12 58 45 51
199 198 215 244 250 231 232 205 219 274 328 325 320 206 87 231 298 308 272 263 334 78 127 318 269 251 167 154 138 78 77 49 35 32 21 11 348 274 243 270 291 67 58
191 203 202 209 224 198 217 145 190 321 354 344 359 354 317 271 245 271 344 262 283 108 161 103 122 209 165 124 122 68 74 51 40 39 28 26 17 316 272 242 204 200 172
193 203 192 203 213 219 200 184 201 267 336 322 331 331 318 319 322 54 350 45 7 284 149 138 120 154 129 150 111 66 61 52 54 46 42 43 33 5 310 251 225 236 214
194 196 194 187 211 212 203 209 210 238 250 302 317 320 319 350 6 20 356 7 10 23 145 138 125 114 86 30 102 79 75 45 47 50 49 47 42 23 1 287 225 205 223
192 213 188 193 195 210 206 227 237 238 218 253 266 294 319 325 341 33 307 332 338 2 359 343 355 157 110 165 248 41 97 66 21 48 44 40 40 34 26 32 169 175 208
244 187 194 185 185 206 223 225 246 226 221 247 265 263 288 303 303 271 314 348 21 348 342 8 32 68 138 173 314 213 153 53 344 34 44 45 43 44 47 58 109 166 196
169 212 209 191 190 214 226 228 248 252 230 247 288 231 240 287 328 338 280 289 280 267 302 333 342 299 196 115 105 178 223 293 173 77 39 46 47 51 58 67 79 111 155
282 227 214 243 238 214 234 240 248 261 230 239 254 264 266 281 299 321 335 321 263 257 274 310 339 298 309 127 86 248 300 220 189 98 46 33 50 57 62 66 74 88 107
238 216 220 226 226 231 240 243 234 245 250 242 246 250 261 298 229 293 289 313 279 236 256 316 318 339 337 315 340 246 185 228 199 132 66 33 53 55 55 57 59 60 57
212 219 213 218 220 224 227 225 225 242 243 244 256 235 264 273 264 261 304 304 322 353 342 317 310 329 4 354 340 300 108 161 174 131 99 97 71 45 41 47 58 65 65
207 215 220 218 220 222 223 229 231 234 236 245 253 248 265 247 262 268 277 295 312 320 317 327 325 332 342 350 337 62 92 165 125 121 121 75 76 67 65 64 73 84 81
210 210 221 225 223 224 220 225 226 231 231 243 249 241 244 246 250 245 253 255 283 316 324 335 341 349 355 12 21 8 24 124 119 158 136 101 70 61 68 65 89 101 95
218 216 217 223 224 223 229 230 222 223 230 237 239 238 239 249 246 249 255 267 282 291 323 350 342 355 13 29 26 18 15 62 119 150 126 122 161 136 43 31 100 109 86
221 222 225 225 228 226 231 237 229 216 221 238 241 238 230 223 234 209 173 137 179 234 88 65 81 64 58 10 33 38 63 71 100 125 167 138 176 208 108 102 105 293 11
224 224 227 227 230 233 233 237 237 222 221 231 243 242 229 213 189 206 169 163 181 74 136 120 157 90 59 25 109 67 86 102 83 79 104 109 126 82 113 36 22 42 77
234 232 231 232 232 235 235 234 219 214 224 229 232 224 202 205 203 196 183 179 164 115 99 95 97 88 72 68 86 95 123 131 104 60 95 97 139 161 165 248 79 79 83
248 242 235 233 232 233 238 236 215 208 215 208 204 198 199 216 208 204 184 179 154 160 145 123 105 91 77 72 78 68 48 111 144 149 60 181 191 188 198 235 175 127 122